SCP
0 0 0 0 -0 -0 -0 -0 -0 -0 -0 -0 -0 -0 -0 -0 -0 -0 0 -0 -0 0 -0 0 -0 0 -0 -0 0 -0 -0 -0 -0 -0 -0 -0 -0 -0 -0 -0 -0 -0 -0 -0 -0 -0 -0 -0 -0
0 0 0 0 0 -0 -0 -0 -0 -0 -0 -0 -0 0 0 -0 -0 -0 0 -0 0 0 0 0 0 0 0 0 0 -0 -0 -0 -0 -0 -0 0 -0 -0 -0 -0 -0 -0 -0 -0 -0 -0 -0 -0 -0
0 0 0 0 -0 -0 -0 -0 -0 -0 -0 0 0 0 -0 -0 -0 -0 -0 -0 -0 0 0 0 0 0 0 0 0 0 0 0 -0 -0 -0 -0 -0 -0 -0 -0 -0 -0 -0 -0 -0 -0 -0 -0 -0
0 0 0 0 -0 -0 -0 -0 -0 -0 -0 0 0 -0 -0 0 -0 -0 -0 -0 -0 0 0 -0 0 0 0 0 0 -0 -0 0 0 -0 -0 -0 -0 -0 -0 -0 -0 -0 -0 -0 -0 -0 -0 -0 -0
0 0 0 0 -0 -0 0 0 -0 -0 -0 -0 0 -0 -0 -0 -0 -0 -0 -0 -0 -0 -0 -0 0 0 0 0 0 0 0 0 -0 -0 -0 -0 -0 -0 -0 -0 -0 -0 -0 -0 -0 -0 -0 -0 -0
0 0 0 -0 -0 -0 0 0 -0 0 -0 -0 0 -0 -0 -0 -0 -0 -0 -0 -0 -0 -0 -0 -0 -0 0 0 0 0 -0 0 -0 -0 -0 -0 -0 -0 -0 -0 -0 -0 -0 -0 -0 -0 -0 -0 -0
0 0 0 0 -0 -0 0 0 0 0 -0 -0 0 0 -0 -0 -0 -0 -0 -0 -0 -0 -0 -0 -0 -0 -0 -0 -0 0 0 -0 0 -0 -0 -0 -0 -0 -0 -0 -0 -0 -0 -0 -0 -0 -0 0 -0
0 0 0 0 0 -0 0 0 0 0 0 0 0 -0 -0 -0 -0 0 -0 -0 -0 -0 -0 0 -0 -0 -0 -0 0 0 0 -0 0 0 -0 -0 -0 -0 -0 -0 0 -0 -0 -0 0 0 0 0 0
0 0 0 0 0 0 0 0 0 0 0 0 0 0 0 -0 -0 -0 -0 -0 -0 -0 -0 -0 0 -0 -0 -0 0 0 0 0 0 -0 -0 -0 0 0 0 -0 0 0 0 0 0 0 0 0 0
0 0 0 0 0 0 0 0 0 0 0 0 0 0 0 -0 -0 -0 -0 -0 -0 -0 -0 -0 -0 -0 0 0 -0 -0 -0 0 0 -0 -0 0 0 0 0 0 0 0 0 0 0 0 0 0 0
0 0 0 0 0 0 0 0 0 0 0 0 0 0 0 -0 -0 -0 -0 -0 -0 -0 -0 -0 -0 -0 -0 -0 0 0 0 0 0 -0 0 0 0 0 0 0 0 0 0 0 0 0 0 0 0
0 0 0 0 0 0 0 0 0 0 0 0 0 0 0 -0 -0 -0 -0 -0 -0 -0 -0 -0 -0 -0 -0 0 0 -0 -0 0 0 0 0 0 0 0 0 0 0 0 0 0 0 0 0 0 0
0 0 0 0 0 0 0 0 0 0 0 0 0 0 0 0 -0 0 -0 -0 -0 -0 -0 -0 -0 -0 -0 -0 -0 -0 -0 -0 0 0 0 0 0 0 0 0 0 0 0 0 0 0 0 0 0
0 0 0 0 0 0 0 0 0 0 0 0 0 0 0 0 0 0 0 0 -0 -0 -0 -0 -0 -0 -0 -0 -0 -0 -0 -0 -0 0 0 0 0 0 0 0 0 0 0 0 0 0 0 0 0
0 0 0 0 0 0 0 0 0 0 0 0 0 -0 0 0 0 0 0 0 0 0 -0 -0 -0 -0 -0 -0 -0 -0 0 0 0 0 0 0 0 0 0 0 0 0 0 0 0 0 0 0 0
0 0 0 0 0 0 0 0 0 0 0 0 0 0 0 -0 0 0 0 0 0 0 0 -0 0 -0 -0 -0 0 0 0 0 0 0 0 0 0 0 0 0 0 0 0 0 0 0 0 0 0
0 0 0 0 0 0 0 0 0 0 0 0 0 0 0 0 -0 0 0 0 0 0 0 0 0 0 0 0 0 0 0 0 0 0 0 0 0 0 0 0 0 0 0 0 0 0 0 0 0
0 0 0 0 0 0 0 0 0 0 0 0 0 0 0 0 0 0 0 0 0 0 0 0 0 0 0 0 0 0 0 0 0 0 0 0 0 0 0 0 0 0 0 0 0 0 0 0 0
0 0 0 0 0 0 0 0 0 0 0 0 0 0 0 0 0 0 0 0 0 0 0 0 0 0 0 0 0 0 0 0 0 0 0 0 0 0 0 0 0 0 0 0 0 0 0 0 0
0 0 0 0 0 0 0 0 0 0 0 0 0 0 0 0 0 0 0 0 0 0 0 0 0 0 0 0 0 0 0 0 0 0 0 0 0 0 0 0 0 0 0 0 0 0 0 0 0
0 0 0 0 0 0 0 0 0 0 0 0 0 0 0 0 0 0 0 0 0 0 0 0 0 0 0 0 0 0 0 0 0 0 0 0 0 0 0 0 0 0 0 0 0 0 0 0 0
0 0 0 0 0 0 0 0 0 0 0 0 0 0 0 0 0 0 0 0 0 0 0 0 0 0 0 0 0 0 0 0 0 0 0 0 0 0 0 0 0 0 0 0 0 0 0 0 0
0 0 0 0 0 0 0 0 0 0 0 0 0 0 0 0 0 0 0 0 0 0 0 0 0 0 0 0 0 0 0 0 0 0 0 0 0 0 0 0 0 0 0 0 0 0 0 0 0
0 0 0 0 0 0 0 0 0 0 0 0 0 0 0 0 0 0 0 0 0 0 0 0 0 0 0 0 0 0 0 0 0 0 0 0 0 0 0 0 0 0 0 0 0 0 0 0 0
0 0 0 0 0 0 0 0 0 0 0 0 0 0 0 0 0 0 0 0 0 0 0 0 0 0 0 0 0 0 0 0 0 0 0 0 0 0 0 0 0 0 0 0 0 0 0 0 0
0 0 0 0 0 0 0 0 0 0 0 0 0 0 0 0 0 0 0 0 0 0 0 0 0 0 0 0 0 0 0 0 0 0 0 0 0 0 0 0 0 0 0 0 0 0 0 0 0
0 0 0 0 0 0 0 0 0 0 0 0 0 0 0 0 0 0 0 0 0 0 0 0 0 0 0 0 0 0 0 0 0 0 0 0 0 0 0 0 0 0 0 0 0 0 0 0 0
0 0 0 0 0 0 0 0 0 0 0 0 0 0 0 0 0 0 0 0 0 0 0 0 0 0 0 0 0 0 0 0 0 0 0 0 0 0 0 0 0 0 0 0 0 0 0 0 0
0 0 0 0 0 0 0 0 0 0 0 0 0 0 0 0 0 0 0 0 0 0 0 0 0 0 0 0 0 0 0 0 0 0 0 0 0 0 0 0 0 0 0 0 0 0 0 0 0
0 0 0 0 0 0 0 0 0 0 0 0 0 0 0 0 0 0 0 0 0 0 0 0 0 0 0 0 0 0 0 0 0 0 0 0 0 0 0 0 0 0 0 0 0 0 0 0 0
Wind_Speed_500mb
4 1 6 9 11 8 8 13 5 14 12 11 12 4 16 14 17 9 32 21 37 36 33 27 23 18 16 17 19 22 21 13 17 23 29 29 26 27 34 31 24 26 26 25 26 26 26 26 24
6 5 2 8 11 12 14 15 14 16 17 12 9 4 2 16 14 23 32 31 40 35 31 28 24 19 18 19 19 21 21 16 19 22 25 29 25 26 33 31 24 28 27 26 24 23 22 20 17
9 11 15 7 14 12 12 17 19 15 15 13 9 2 6 10 12 34 18 40 39 34 31 30 26 20 19 19 19 20 21 22 18 21 22 28 27 25 28 25 25 25 26 26 25 25 23 21 18
7 9 11 14 19 1 7 17 20 22 10 7 0 11 10 10 23 15 37 41 36 34 30 31 27 22 20 19 18 18 20 21 21 18 19 24 26 25 24 23 22 23 26 25 24 23 23 22 21
14 15 16 20 13 4 4 15 24 23 19 17 9 11 8 10 16 25 42 40 36 33 30 31 27 22 19 18 18 18 18 20 22 12 15 18 21 22 21 19 19 20 23 21 22 22 23 24 25
20 22 15 22 19 8 7 16 23 24 17 13 10 7 12 13 20 32 38 39 34 32 31 31 28 23 19 17 16 16 17 17 20 13 12 14 17 18 19 16 15 16 16 17 18 20 21 22 25
26 17 22 21 16 13 12 20 25 20 18 15 2 9 10 18 24 34 34 37 33 31 28 33 30 27 22 19 16 15 15 14 15 14 9 10 12 14 15 14 12 10 12 14 15 18 19 20 23
13 16 19 16 21 14 18 24 12 18 14 11 7 8 13 24 28 31 34 35 34 33 30 32 31 30 26 22 20 17 15 14 14 12 9 6 7 10 11 11 9 7 9 11 13 15 15 16 15
9 11 19 20 21 15 24 19 13 9 10 12 11 4 14 29 31 33 36 36 36 34 33 32 33 31 27 25 21 19 17 15 13 12 9 5 3 6 6 7 4 5 7 9 10 11 12 11 9
15 17 24 13 16 20 32 25 22 16 17 14 14 9 20 30 32 35 38 40 41 39 38 38 38 33 32 26 25 23 20 17 16 15 12 8 8 3 1 0 4 5 6 8 8 8 8 9 5
14 20 14 14 12 12 30 19 15 14 15 15 23 24 24 32 33 35 35 36 41 39 38 42 44 41 38 34 30 27 26 23 21 18 15 16 11 6 4 2 5 6 6 8 8 7 4 5 7
16 1 5 15 11 15 25 18 13 19 11 10 12 20 28 32 37 36 35 35 36 40 42 40 46 46 45 41 36 31 27 28 25 23 20 16 13 10 7 3 5 8 9 11 10 9 6 4 3
7 12 6 14 14 13 16 16 4 18 15 9 11 22 26 28 33 31 31 33 36 40 40 41 40 48 48 46 42 40 34 31 29 29 26 22 19 16 12 8 7 10 12 12 11 9 8 5 4
9 15 18 12 14 7 14 11 5 13 13 16 17 15 23 30 33 32 34 35 38 39 41 40 44 46 47 48 49 46 43 39 33 35 32 28 26 22 20 16 12 12 14 13 14 12 10 8 6
25 15 11 13 10 3 4 12 21 15 11 9 17 24 24 27 32 36 36 37 37 38 37 41 44 47 48 47 47 48 45 45 44 40 38 35 33 30 27 24 21 16 16 16 16 16 14 12 11
16 14 15 14 14 4 4 23 26 10 17 23 21 16 26 29 31 33 36 35 36 37 40 40 45 44 46 47 47 47 45 42 41 39 39 40 39 37 33 32 29 28 23 19 19 16 17 17 18
16 20 28 12 14 7 16 17 11 6 10 16 23 29 26 27 32 32 33 36 36 39 39 41 45 47 47 47 47 46 47 47 43 40 38 37 38 41 40 38 36 37 35 33 29 26 26 27 31
24 25 11 21 15 16 19 25 9 12 12 16 16 22 28 28 28 27 33 39 39 40 40 42 45 47 50 50 51 52 54 53 51 48 42 40 39 37 40 44 43 45 43 43 42 39 38 39 42
28 28 22 17 6 12 25 30 29 30 23 22 26 26 26 27 23 22 28 33 37 41 44 47 46 45 53 55 58 61 61 58 57 55 50 46 44 41 41 43 46 50 46 47 48 48 50 53 54
20 29 19 9 6 8 11 25 27 33 38 35 36 35 33 30 28 25 33 39 45 50 53 55 52 50 54 59 61 60 57 60 58 56 56 52 50 48 48 47 47 50 48 50 52 54 57 58 61
12 24 19 3 10 4 13 22 31 29 39 34 31 32 29 24 29 24 28 34 40 43 51 62 63 58 53 56 56 57 53 54 57 58 59 57 52 53 51 46 47 51 50 50 53 54 61 64 73
14 5 14 18 14 11 5 9 8 17 21 21 30 32 29 21 25 27 26 26 31 38 40 43 48 51 57 54 47 50 58 60 56 52 55 53 50 51 53 48 46 47 47 55 49 49 56 59 69
6 12 13 10 6 7 12 10 10 5 17 22 25 18 15 14 15 13 17 20 21 24 30 33 36 40 44 53 53 50 52 47 37 37 41 44 43 42 45 44 43 46 50 49 50 55 53 57 66
28 19 16 8 5 10 21 16 13 14 7 9 18 16 15 13 12 13 13 13 11 11 12 14 18 21 29 39 47 47 42 42 34 36 38 40 40 37 37 36 39 40 41 50 47 47 50 52 56
13 28 7 9 9 11 5 5 24 4 5 7 18 16 17 15 14 12 13 13 12 11 8 7 8 12 19 29 39 42 41 39 40 38 36 33 35 33 31 31 34 39 41 44 46 48 48 55 51
27 29 10 13 11 6 6 15 10 2 7 14 11 11 16 18 17 15 15 14 13 12 10 8 9 10 13 20 29 35 41 37 32 32 34 35 38 32 33 36 39 42 44 45 46 49 53 54 57
13 13 6 11 4 0 13 14 15 16 11 14 19 18 17 16 14 16 15 14 12 10 10 9 9 10 12 15 18 22 26 28 28 26 27 27 31 32 33 36 38 41 44 44 41 45 49 50 53
9 19 7 5 8 9 11 13 18 12 22 20 22 26 21 16 15 16 16 14 12 12 11 11 11 11 11 12 12 12 14 15 18 20 21 23 24 23 24 24 25 28 31 33 37 41 45 51 55
9 10 9 7 6 7 5 9 7 8 20 26 28 28 24 21 19 18 17 16 14 14 14 15 15 15 15 16 17 16 17 16 15 14 13 11 12 12 14 17 21 26 32 37 41 45 49 53 57
10 21 25 10 12 12 3 12 5 7 2 28 30 28 23 22 21 20 21 20 19 19 20 21 21 21 21 20 20 21 19 16 15 13 10 9 9 12 16 20 24 28 33 36 40 44 48 52 55
Wind_Direction_500mb
254 9 32 293 247 250 130 160 101 137 151 89 113 17 19 10 8 51 139 145 149 150 165 158 145 132 126 122 118 118 115 104 83 83 85 91 89 81 93 95 85 88 99 104 104 107 114 116 110
193 162 294 275 261 211 154 134 172 159 102 133 143 195 199 86 56 123 144 147 149 151 157 155 144 134 127 123 122 123 130 111 93 91 84 81 83 79 89 98 83 90 90 95 101 108 114 118 119
185 168 240 230 252 234 146 170 161 123 135 174 153 278 43 74 86 135 166 149 151 150 148 157 146 136 130 127 124 120 119 118 103 94 92 82 80 79 82 92 91 88 91 92 95 100 105 110 113
173 197 234 244 198 71 7 170 144 149 152 186 240 140 96 99 137 151 156 152 153 152 155 156 149 142 137 132 124 117 111 116 114 104 92 79 74 73 77 81 92 83 85 86 91 99 103 104 106
186 213 216 227 223 99 158 153 162 178 164 165 196 114 98 124 153 150 157 156 158 155 165 162 154 149 143 136 128 123 117 120 118 121 89 75 68 66 70 75 79 83 81 83 91 98 101 103 103
202 213 215 212 200 146 154 171 182 185 163 137 192 147 110 148 146 156 161 162 163 161 171 168 162 159 154 145 137 130 123 123 132 131 101 84 70 64 67 75 83 86 91 89 95 101 101 103 104
241 199 213 207 171 172 160 174 196 186 172 176 90 186 114 154 156 159 164 168 168 169 169 173 172 169 166 160 154 144 134 130 138 139 118 90 75 65 63 74 88 83 91 98 102 104 104 104 107
258 212 216 207 181 177 151 173 207 185 164 146 165 169 167 170 164 161 165 173 174 175 180 181 182 180 179 176 171 164 157 153 153 155 140 110 82 65 55 72 91 91 101 104 103 101 101 106 104
230 221 199 191 195 141 160 176 181 187 155 169 169 64 128 166 161 164 169 177 181 184 180 191 195 186 191 188 186 182 178 174 171 175 169 172 110 79 49 55 98 111 119 123 119 109 102 100 97
224 218 206 176 182 156 171 197 175 184 171 178 175 178 146 163 167 174 181 186 189 190 187 205 196 199 194 200 198 198 197 194 197 197 190 153 169 198 299 219 179 168 155 145 137 121 108 89 70
190 214 113 162 144 153 169 184 184 202 189 188 195 186 169 170 183 187 196 202 200 197 195 210 204 203 203 202 211 209 205 207 209 213 205 208 209 212 261 269 206 189 176 163 166 159 150 160 160
194 265 145 146 143 149 171 167 199 205 82 117 169 181 178 187 193 199 201 206 210 205 203 211 212 213 214 213 214 212 215 216 220 222 223 225 226 227 231 264 218 207 183 201 190 198 191 184 163
229 135 102 132 136 158 153 179 204 220 206 195 175 177 190 203 203 207 206 205 210 211 212 211 217 221 222 222 223 219 219 225 225 230 231 231 229 228 230 233 225 217 209 207 208 205 201 201 198
145 149 128 132 138 144 189 181 205 200 194 212 221 206 203 211 214 206 205 208 207 209 212 215 217 226 225 227 230 231 232 232 229 234 235 231 232 232 230 230 229 226 216 218 214 213 218 228 232
145 129 147 160 155 95 272 218 226 197 164 194 223 227 218 219 218 213 213 210 212 211 212 216 226 228 232 233 235 236 237 237 236 236 238 236 233 234 233 233 232 233 226 226 227 226 228 235 251
177 163 184 156 174 169 187 246 211 200 229 229 233 230 221 225 225 220 219 220 215 216 215 221 230 233 232 235 235 235 237 240 237 237 239 240 237 237 236 237 236 235 232 228 234 236 236 251 261
202 197 209 158 201 159 206 254 136 208 228 245 236 231 225 231 229 224 222 221 221 221 220 222 231 236 233 235 237 238 238 239 241 238 236 239 240 238 240 240 240 242 239 237 237 244 255 264 263
187 213 204 207 181 217 207 244 192 203 214 247 241 227 221 226 227 227 232 233 229 227 225 226 231 235 237 234 236 239 240 241 243 245 241 242 241 241 240 241 242 245 244 246 247 247 247 256 268
197 203 201 189 126 217 232 249 246 241 224 242 242 231 219 219 216 225 228 236 239 236 233 233 227 230 241 237 235 238 241 243 244 247 248 246 246 245 244 242 244 247 248 251 254 254 258 258 260
180 193 186 130 135 207 231 259 255 248 242 234 238 237 227 217 222 246 248 243 247 245 240 235 232 229 237 242 241 241 245 247 252 254 253 251 250 250 248 247 248 252 254 255 259 260 262 264 267
193 194 168 194 155 232 283 266 246 237 244 237 232 236 241 235 234 235 246 246 242 248 243 240 238 235 230 243 242 236 237 244 250 249 253 254 251 251 252 254 255 257 260 262 266 267 268 269 268
185 95 138 134 176 230 265 262 177 225 225 213 229 223 228 225 242 238 238 241 235 237 242 240 240 241 237 223 230 238 235 237 247 252 257 256 255 251 253 253 258 261 260 258 268 271 273 270 277
155 114 114 135 195 292 185 263 237 146 250 222 196 181 193 196 192 206 216 227 232 235 239 237 238 240 236 219 220 227 241 236 241 251 248 254 257 250 248 246 250 251 260 269 273 272 285 277 282
137 122 95 114 191 246 231 223 251 209 227 121 151 172 175 169 171 177 186 184 193 194 213 223 228 233 226 218 221 222 235 235 227 226 243 251 253 249 246 245 249 257 260 269 275 277 279 281 284
193 162 144 194 201 245 56 210 246 183 157 220 163 168 159 157 157 157 166 165 163 154 156 181 205 222 229 231 227 225 225 239 232 228 231 246 254 253 254 255 257 262 266 266 272 275 278 283 277
194 191 178 190 195 191 88 230 245 23 83 170 168 168 161 156 170 171 179 172 164 162 167 195 208 216 218 220 219 217 215 216 225 226 226 230 246 253 251 255 258 256 261 268 270 272 275 281 279
170 202 71 109 43 99 203 247 273 177 178 198 181 180 174 162 165 178 182 179 172 177 184 195 209 220 220 224 226 227 223 219 221 226 230 235 239 245 247 250 255 260 264 271 268 273 276 278 280
214 146 152 232 178 225 224 258 244 206 217 191 184 186 174 168 175 179 177 179 176 172 174 174 187 192 189 191 190 187 185 191 197 207 216 223 235 240 243 248 256 264 271 277 280 282 285 286 287
159 180 214 241 201 208 243 232 32 288 188 190 187 179 173 170 177 179 175 172 168 166 168 168 163 161 162 161 161 162 165 169 174 177 184 196 210 226 246 259 269 276 281 283 285 287 287 287 289
282 212 186 190 202 238 35 262 93 52 164 179 174 166 163 171 170 169 163 162 164 163 154 151 150 147 141 138 140 143 145 147 156 170 184 212 247 265 273 280 285 289 290 290 291 291 292 294 295
Wind_Speed_850mb
4 1 6 9 11 8 8 13 5 14 12 11 12 4 16 14 17 9 32 21 37 36 33 27 23 18 16 17 19 22 21 13 17 23 29 29 26 27 34 31 24 26 26 25 26 26 26 26 24
6 5 2 8 11 12 14 15 14 16 17 12 9 4 2 16 14 23 32 31 40 35 31 28 24 19 18 19 19 21 21 16 19 22 25 29 25 26 33 31 24 28 27 26 24 23 22 20 17
9 11 15 7 14 12 12 17 19 15 15 13 9 2 6 10 12 34 18 40 39 34 31 30 26 20 19 19 19 20 21 22 18 21 22 28 27 25 28 25 25 25 26 26 25 25 23 21 18
7 9 11 14 19 1 7 17 20 22 10 7 0 11 10 10 23 15 37 41 36 34 30 31 27 22 20 19 18 18 20 21 21 18 19 24 26 25 24 23 22 23 26 25 24 23 23 22 21
14 15 16 20 13 4 4 15 24 23 19 17 9 11 8 10 16 25 42 40 36 33 30 31 27 22 19 18 18 18 18 20 22 12 15 18 21 22 21 19 19 20 23 21 22 22 23 24 25
20 22 15 22 19 8 7 16 23 24 17 13 10 7 12 13 20 32 38 39 34 32 31 31 28 23 19 17 16 16 17 17 20 13 12 14 17 18 19 16 15 16 16 17 18 20 21 22 25
26 17 22 21 16 13 12 20 25 20 18 15 2 9 10 18 24 34 34 37 33 31 28 33 30 27 22 19 16 15 15 14 15 14 9 10 12 14 15 14 12 10 12 14 15 18 19 20 23
13 16 19 16 21 14 18 24 12 18 14 11 7 8 13 24 28 31 34 35 34 33 30 32 31 30 26 22 20 17 15 14 14 12 9 6 7 10 11 11 9 7 9 11 13 15 15 16 15
9 11 19 20 21 15 24 19 13 9 10 12 11 4 14 29 31 33 36 36 36 34 33 32 33 31 27 25 21 19 17 15 13 12 9 5 3 6 6 7 4 5 7 9 10 11 12 11 9
15 17 24 13 16 20 32 25 22 16 17 14 14 9 20 30 32 35 38 40 41 39 38 38 38 33 32 26 25 23 20 17 16 15 12 8 8 3 1 0 4 5 6 8 8 8 8 9 5
14 20 14 14 12 12 30 19 15 14 15 15 23 24 24 32 33 35 35 36 41 39 38 42 44 41 38 34 30 27 26 23 21 18 15 16 11 6 4 2 5 6 6 8 8 7 4 5 7
16 1 5 15 11 15 25 18 13 19 11 10 12 20 28 32 37 36 35 35 36 40 42 40 46 46 45 41 36 31 27 28 25 23 20 16 13 10 7 3 5 8 9 11 10 9 6 4 3
7 12 6 14 14 13 16 16 4 18 15 9 11 22 26 28 33 31 31 33 36 40 40 41 40 48 48 46 42 40 34 31 29 29 26 22 19 16 12 8 7 10 12 12 11 9 8 5 4
9 15 18 12 14 7 14 11 5 13 13 16 17 15 23 30 33 32 34 35 38 39 41 40 44 46 47 48 49 46 43 39 33 35 32 28 26 22 20 16 12 12 14 13 14 12 10 8 6
25 15 11 13 10 3 4 12 21 15 11 9 17 24 24 27 32 36 36 37 37 38 37 41 44 47 48 47 47 48 45 45 44 40 38 35 33 30 27 24 21 16 16 16 16 16 14 12 11
16 14 15 14 14 4 4 23 26 10 17 23 21 16 26 29 31 33 36 35 36 37 40 40 45 44 46 47 47 47 45 42 41 39 39 40 39 37 33 32 29 28 23 19 19 16 17 17 18
16 20 28 12 14 7 16 17 11 6 10 16 23 29 26 27 32 32 33 36 36 39 39 41 45 47 47 47 47 46 47 47 43 40 38 37 38 41 40 38 36 37 35 33 29 26 26 27 31
24 25 11 21 15 16 19 25 9 12 12 16 16 22 28 28 28 27 33 39 39 40 40 42 45 47 50 50 51 52 54 53 51 48 42 40 39 37 40 44 43 45 43 43 42 39 38 39 42
28 28 22 17 6 12 25 30 29 30 23 22 26 26 26 27 23 22 28 33 37 41 44 47 46 45 53 55 58 61 61 58 57 55 50 46 44 41 41 43 46 50 46 47 48 48 50 53 54
20 29 19 9 6 8 11 25 27 33 38 35 36 35 33 30 28 25 33 39 45 50 53 55 52 50 54 59 61 60 57 60 58 56 56 52 50 48 48 47 47 50 48 50 52 54 57 58 61
12 24 19 3 10 4 13 22 31 29 39 34 31 32 29 24 29 24 28 34 40 43 51 62 63 58 53 56 56 57 53 54 57 58 59 57 52 53 51 46 47 51 50 50 53 54 61 64 73
14 5 14 18 14 11 5 9 8 17 21 21 30 32 29 21 25 27 26 26 31 38 40 43 48 51 57 54 47 50 58 60 56 52 55 53 50 51 53 48 46 47 47 55 49 49 56 59 69
6 12 13 10 6 7 12 10 10 5 17 22 25 18 15 14 15 13 17 20 21 24 30 33 36 40 44 53 53 50 52 47 37 37 41 44 43 42 45 44 43 46 50 49 50 55 53 57 66
28 19 16 8 5 10 21 16 13 14 7 9 18 16 15 13 12 13 13 13 11 11 12 14 18 21 29 39 47 47 42 42 34 36 38 40 40 37 37 36 39 40 41 50 47 47 50 52 56
13 28 7 9 9 11 5 5 24 4 5 7 18 16 17 15 14 12 13 13 12 11 8 7 8 12 19 29 39 42 41 39 40 38 36 33 35 33 31 31 34 39 41 44 46 48 48 55 51
27 29 10 13 11 6 6 15 10 2 7 14 11 11 16 18 17 15 15 14 13 12 10 8 9 10 13 20 29 35 41 37 32 32 34 35 38 32 33 36 39 42 44 45 46 49 53 54 57
13 13 6 11 4 0 13 14 15 16 11 14 19 18 17 16 14 16 15 14 12 10 10 9 9 10 12 15 18 22 26 28 28 26 27 27 31 32 33 36 38 41 44 44 41 45 49 50 53
9 19 7 5 8 9 11 13 18 12 22 20 22 26 21 16 15 16 16 14 12 12 11 11 11 11 11 12 12 12 14 15 18 20 21 23 24 23 24 24 25 28 31 33 37 41 45 51 55
9 10 9 7 6 7 5 9 7 8 20 26 28 28 24 21 19 18 17 16 14 14 14 15 15 15 15 16 17 16 17 16 15 14 13 11 12 12 14 17 21 26 32 37 41 45 49 53 57
10 21 25 10 12 12 3 12 5 7 2 28 30 28 23 22 21 20 21 20 19 19 20 21 21 21 21 20 20 21 19 16 15 13 10 9 9 12 16 20 24 28 33 36 40 44 48 52 55
Wind_Direction_850mb
254 9 32 293 247 250 130 160 101 137 151 89 113 17 19 10 8 51 139 145 149 150 165 158 145 132 126 122 118 118 115 104 83 83 85 91 89 81 93 95 85 88 99 104 104 107 114 116 110
193 162 294 275 261 211 154 134 172 159 102 133 143 195 199 86 56 123 144 147 149 151 157 155 144 134 127 123 122 123 130 111 93 91 84 81 83 79 89 98 83 90 90 95 101 108 114 118 119
185 168 240 230 252 234 146 170 161 123 135 174 153 278 43 74 86 135 166 149 151 150 148 157 146 136 130 127 124 120 119 118 103 94 92 82 80 79 82 92 91 88 91 92 95 100 105 110 113
173 197 234 244 198 71 7 170 144 149 152 186 240 140 96 99 137 151 156 152 153 152 155 156 149 142 137 132 124 117 111 116 114 104 92 79 74 73 77 81 92 83 85 86 91 99 103 104 106
186 213 216 227 223 99 158 153 162 178 164 165 196 114 98 124 153 150 157 156 158 155 165 162 154 149 143 136 128 123 117 120 118 121 89 75 68 66 70 75 79 83 81 83 91 98 101 103 103
202 213 215 212 200 146 154 171 182 185 163 137 192 147 110 148 146 156 161 162 163 161 171 168 162 159 154 145 137 130 123 123 132 131 101 84 70 64 67 75 83 86 91 89 95 101 101 103 104
241 199 213 207 171 172 160 174 196 186 172 176 90 186 114 154 156 159 164 168 168 169 169 173 172 169 166 160 154 144 134 130 138 139 118 90 75 65 63 74 88 83 91 98 102 104 104 104 107
258 212 216 207 181 177 151 173 207 185 164 146 165 169 167 170 164 161 165 173 174 175 180 181 182 180 179 176 171 164 157 153 153 155 140 110 82 65 55 72 91 91 101 104 103 101 101 106 104
230 221 199 191 195 141 160 176 181 187 155 169 169 64 128 166 161 164 169 177 181 184 180 191 195 186 191 188 186 182 178 174 171 175 169 172 110 79 49 55 98 111 119 123 119 109 102 100 97
224 218 206 176 182 156 171 197 175 184 171 178 175 178 146 163 167 174 181 186 189 190 187 205 196 199 194 200 198 198 197 194 197 197 190 153 169 198 299 219 179 168 155 145 137 121 108 89 70
190 214 113 162 144 153 169 184 184 202 189 188 195 186 169 170 183 187 196 202 200 197 195 210 204 203 203 202 211 209 205 207 209 213 205 208 209 212 261 269 206 189 176 163 166 159 150 160 160
194 265 145 146 143 149 171 167 199 205 82 117 169 181 178 187 193 199 201 206 210 205 203 211 212 213 214 213 214 212 215 216 220 222 223 225 226 227 231 264 218 207 183 201 190 198 191 184 163
229 135 102 132 136 158 153 179 204 220 206 195 175 177 190 203 203 207 206 205 210 211 212 211 217 221 222 222 223 219 219 225 225 230 231 231 229 228 230 233 225 217 209 207 208 205 201 201 198
145 149 128 132 138 144 189 181 205 200 194 212 221 206 203 211 214 206 205 208 207 209 212 215 217 226 225 227 230 231 232 232 229 234 235 231 232 232 230 230 229 226 216 218 214 213 218 228 232
145 129 147 160 155 95 272 218 226 197 164 194 223 227 218 219 218 213 213 210 212 211 212 216 226 228 232 233 235 236 237 237 236 236 238 236 233 234 233 233 232 233 226 226 227 226 228 235 251
177 163 184 156 174 169 187 246 211 200 229 229 233 230 221 225 225 220 219 220 215 216 215 221 230 233 232 235 235 235 237 240 237 237 239 240 237 237 236 237 236 235 232 228 234 236 236 251 261
202 197 209 158 201 159 206 254 136 208 228 245 236 231 225 231 229 224 222 221 221 221 220 222 231 236 233 235 237 238 238 239 241 238 236 239 240 238 240 240 240 242 239 237 237 244 255 264 263
187 213 204 207 181 217 207 244 192 203 214 247 241 227 221 226 227 227 232 233 229 227 225 226 231 235 237 234 236 239 240 241 243 245 241 242 241 241 240 241 242 245 244 246 247 247 247 256 268
197 203 201 189 126 217 232 249 246 241 224 242 242 231 219 219 216 225 228 236 239 236 233 233 227 230 241 237 235 238 241 243 244 247 248 246 246 245 244 242 244 247 248 251 254 254 258 258 260
180 193 186 130 135 207 231 259 255 248 242 234 238 237 227 217 222 246 248 243 247 245 240 235 232 229 237 242 241 241 245 247 252 254 253 251 250 250 248 247 248 252 254 255 259 260 262 264 267
193 194 168 194 155 232 283 266 246 237 244 237 232 236 241 235 234 235 246 246 242 248 243 240 238 235 230 243 242 236 237 244 250 249 253 254 251 251 252 254 255 257 260 262 266 267 268 269 268
185 95 138 134 176 230 265 262 177 225 225 213 229 223 228 225 242 238 238 241 235 237 242 240 240 241 237 223 230 238 235 237 247 252 257 256 255 251 253 253 258 261 260 258 268 271 273 270 277
155 114 114 135 195 292 185 263 237 146 250 222 196 181 193 196 192 206 216 227 232 235 239 237 238 240 236 219 220 227 241 236 241 251 248 254 257 250 248 246 250 251 260 269 273 272 285 277 282
137 122 95 114 191 246 231 223 251 209 227 121 151 172 175 169 171 177 186 184 193 194 213 223 228 233 226 218 221 222 235 235 227 226 243 251 253 249 246 245 249 257 260 269 275 277 279 281 284
193 162 144 194 201 245 56 210 246 183 157 220 163 168 159 157 157 157 166 165 163 154 156 181 205 222 229 231 227 225 225 239 232 228 231 246 254 253 254 255 257 262 266 266 272 275 278 283 277
194 191 178 190 195 191 88 230 245 23 83 170 168 168 161 156 170 171 179 172 164 162 167 195 208 216 218 220 219 217 215 216 225 226 226 230 246 253 251 255 258 256 261 268 270 272 275 281 279
170 202 71 109 43 99 203 247 273 177 178 198 181 180 174 162 165 178 182 179 172 177 184 195 209 220 220 224 226 227 223 219 221 226 230 235 239 245 247 250 255 260 264 271 268 273 276 278 280
214 146 152 232 178 225 224 258 244 206 217 191 184 186 174 168 175 179 177 179 176 172 174 174 187 192 189 191 190 187 185 191 197 207 216 223 235 240 243 248 256 264 271 277 280 282 285 286 287
159 180 214 241 201 208 243 232 32 288 188 190 187 179 173 170 177 179 175 172 168 166 168 168 163 161 162 161 161 162 165 169 174 177 184 196 210 226 246 259 269 276 281 283 285 287 287 287 289
282 212 186 190 202 238 35 262 93 52 164 179 174 166 163 171 170 169 163 162 164 163 154 151 150 147 141 138 140 143 145 147 156 170 184 212 247 265 273 280 285 289 290 290 291 291 292 294 295